sat.trackr.live / text

‹ back to catalog

STARLINK-35746

NORAD 66582 · 2025-268AB

PAYLOAD ACTIVE UNKNOWN

§ Identity

Operator
Country
US
Launch date
2025-11-21
Launch site
AFETR
Launch vehicle
Mass (kg)
RCS (m²)

Purposes: comms

External: N2YO · Heavens-Above · Gunter

§ Orbital elements

Epoch: 2026-05-24T16:09:53.190720Z

Period
94.27 min
Inclination
43.0008°
Eccentricity
0.0001254
Mean motion
15.27586972 rev/d
Perigee alt
482.2 km
Apogee alt
483.9 km
Semi-major
6,861.2 km
B*
5.6914e-4
RAAN
277.6692°
Arg perigee
282.7361°
Mean anomaly
77.3350°
Rev number
2,958

§ Raw data

STARLINK-357461 66582U 25268AB  26144.67353230  .00015436  00000+0  56914-3 0  99922 66582  43.0008 277.6692 0001254 282.7361  77.3350 15.27586972 29585

JSON: /api/v1/satellites/66582 · /tle

For live sub-satellite position, see the globe view (requires WebGL).

§ Visibility from observer

Set your observer location to see the next 7 days of passes ≥ 10°. The values pass through the URL so the page stays shareable.

No JS? Fill the form by hand. The geolocation button needs JavaScript.